Year,Month,Day,Hour,Minute,Value (Times are PST for temperature in C)
2009,12,10,00,00,-6.80
2009,12,10,00,01,-6.80
2009,12,10,00,02,-6.80
2009,12,10,00,03,-6.80
2009,12,10,00,04,-6.80
2009,12,10,00,05,-6.80
2009,12,10,00,06,-6.80
2009,12,10,00,07,-6.80
2009,12,10,00,08,-6.80
2009,12,10,00,09,-6.80
2009,12,10,00,10,-6.80
2009,12,10,00,11,-6.80
2009,12,10,00,12,-6.80
2009,12,10,00,13,-6.80
2009,12,10,00,14,-6.80
2009,12,10,00,15,-6.80
2009,12,10,00,16,-6.80
2009,12,10,00,17,-6.80
2009,12,10,00,18,-6.80
2009,12,10,00,19,-6.80
2009,12,10,00,20,-6.80
2009,12,10,00,21,-6.80
2009,12,10,00,22,-6.80
2009,12,10,00,23,-6.80
2009,12,10,00,24,-6.80
2009,12,10,00,25,-6.80
2009,12,10,00,26,-6.80
2009,12,10,00,27,-6.80
2009,12,10,00,28,-6.80
2009,12,10,00,29,-6.80
2009,12,10,00,30,-6.80
2009,12,10,00,31,-6.80
2009,12,10,00,32,-6.80
2009,12,10,00,33,-6.80
2009,12,10,00,34,-6.80
2009,12,10,00,35,-6.80
2009,12,10,00,36,-6.80
2009,12,10,00,37,-6.80
2009,12,10,00,38,-6.80
2009,12,10,00,39,-6.80
2009,12,10,00,40,-6.80
2009,12,10,00,41,-6.80
2009,12,10,00,42,-6.80
2009,12,10,00,43,-6.80
2009,12,10,00,44,-6.80
2009,12,10,00,45,-6.80
2009,12,10,00,46,-6.80
2009,12,10,00,47,-6.90
2009,12,10,00,48,-6.90
2009,12,10,00,49,-7.00
2009,12,10,00,50,-7.00
2009,12,10,00,51,-7.10
2009,12,10,00,52,-7.10
2009,12,10,00,53,-7.10
2009,12,10,00,54,-7.10
2009,12,10,00,55,-7.20
2009,12,10,00,56,-7.20
2009,12,10,00,57,-7.20
2009,12,10,00,58,-7.20
2009,12,10,00,59,-7.20
2009,12,10,01,00,-7.20
2009,12,10,01,01,-7.10
2009,12,10,01,02,-7.10
2009,12,10,01,03,-7.10
2009,12,10,01,04,-7.00
2009,12,10,01,05,-7.00
2009,12,10,01,06,-7.00
2009,12,10,01,07,-7.00
2009,12,10,01,08,-7.00
2009,12,10,01,09,-7.00
2009,12,10,01,10,-6.90
2009,12,10,01,11,-6.90
2009,12,10,01,12,-6.90
2009,12,10,01,13,-6.90
2009,12,10,01,14,-6.90
2009,12,10,01,15,-6.90
2009,12,10,01,16,-7.00
2009,12,10,01,17,-7.00
2009,12,10,01,18,-7.10
2009,12,10,01,19,-7.10
2009,12,10,01,20,-7.10
2009,12,10,01,21,-7.20
2009,12,10,01,22,-7.20
2009,12,10,01,23,-7.20
2009,12,10,01,24,-7.20
2009,12,10,01,25,-7.30
2009,12,10,01,26,-7.30
2009,12,10,01,27,-7.30
2009,12,10,01,28,-7.30
2009,12,10,01,29,-7.30
2009,12,10,01,30,-7.30
2009,12,10,01,31,-7.30
2009,12,10,01,32,-7.30
2009,12,10,01,33,-7.30
2009,12,10,01,34,-7.20
2009,12,10,01,35,-7.20
2009,12,10,01,36,-7.10
2009,12,10,01,37,-7.10
2009,12,10,01,38,-7.00
2009,12,10,01,39,-7.00
2009,12,10,01,40,-6.90
2009,12,10,01,41,-6.90
2009,12,10,01,42,-6.80
2009,12,10,01,43,-6.80
2009,12,10,01,44,-6.80
2009,12,10,01,45,-6.80
2009,12,10,01,46,-6.80
2009,12,10,01,47,-6.80
2009,12,10,01,48,-6.90
2009,12,10,01,49,-7.00
2009,12,10,01,50,-7.00
2009,12,10,01,51,-7.10
2009,12,10,01,52,-7.10
2009,12,10,01,53,-7.10
2009,12,10,01,54,-7.20
2009,12,10,01,55,-7.20
2009,12,10,01,56,-7.20
2009,12,10,01,57,-7.20
2009,12,10,01,58,-7.30
2009,12,10,01,59,-7.30
2009,12,10,02,00,-7.30
2009,12,10,02,01,-7.30
2009,12,10,02,02,-7.30
2009,12,10,02,03,-7.40
2009,12,10,02,04,-7.40
2009,12,10,02,05,-7.50
2009,12,10,02,06,-7.50
2009,12,10,02,07,-7.50
2009,12,10,02,08,-7.60
2009,12,10,02,09,-7.60
2009,12,10,02,10,-7.60
2009,12,10,02,11,-7.60
2009,12,10,02,12,-7.60
2009,12,10,02,13,-7.60
2009,12,10,02,14,-7.60
2009,12,10,02,15,-7.60
2009,12,10,02,16,-7.50
2009,12,10,02,17,-7.50
2009,12,10,02,18,-7.40
2009,12,10,02,19,-7.40
2009,12,10,02,20,-7.40
2009,12,10,02,21,-7.30
2009,12,10,02,22,-7.30
2009,12,10,02,23,-7.20
2009,12,10,02,24,-7.20
2009,12,10,02,25,-7.10
2009,12,10,02,26,-7.10
2009,12,10,02,27,-7.10
2009,12,10,02,28,-7.00
2009,12,10,02,29,-7.00
2009,12,10,02,30,-7.00
2009,12,10,02,31,-7.00
2009,12,10,02,32,-7.00
2009,12,10,02,33,-7.00
2009,12,10,02,34,-7.00
2009,12,10,02,35,-7.00
2009,12,10,02,36,-7.00
2009,12,10,02,37,-7.00
2009,12,10,02,38,-7.00
2009,12,10,02,39,-7.00
2009,12,10,02,40,-7.00
2009,12,10,02,41,-7.10
2009,12,10,02,42,-7.10
2009,12,10,02,43,-7.10
2009,12,10,02,44,-7.10
2009,12,10,02,45,-7.10
2009,12,10,02,46,-7.20
2009,12,10,02,47,-7.20
2009,12,10,02,48,-7.20
2009,12,10,02,49,-7.20
2009,12,10,02,50,-7.20
2009,12,10,02,51,-7.20
2009,12,10,02,52,-7.20
2009,12,10,02,53,-7.20
2009,12,10,02,54,-7.20
2009,12,10,02,55,-7.20
2009,12,10,02,56,-7.10
2009,12,10,02,57,-7.10
2009,12,10,02,58,-7.10
2009,12,10,02,59,-7.10
2009,12,10,03,00,-7.10
2009,12,10,03,01,-7.10
2009,12,10,03,02,-7.10
2009,12,10,03,03,-7.10
2009,12,10,03,04,-7.10
2009,12,10,03,05,-7.10
2009,12,10,03,06,-7.10
2009,12,10,03,07,-7.10
2009,12,10,03,08,-7.20
2009,12,10,03,09,-7.20
2009,12,10,03,10,-7.20
2009,12,10,03,11,-7.30
2009,12,10,03,12,-7.30
2009,12,10,03,13,-7.30
2009,12,10,03,14,-7.40
2009,12,10,03,15,-7.40
2009,12,10,03,16,-7.40
2009,12,10,03,17,-7.40
2009,12,10,03,18,-7.40
2009,12,10,03,19,-7.30
2009,12,10,03,20,-7.30
2009,12,10,03,21,-7.30
2009,12,10,03,22,-7.30
2009,12,10,03,23,-7.30
2009,12,10,03,24,-7.30
2009,12,10,03,25,-7.30
2009,12,10,03,26,-7.30
2009,12,10,03,27,-7.30
2009,12,10,03,28,-7.30
2009,12,10,03,29,-7.40
2009,12,10,03,30,-7.40
2009,12,10,03,31,-7.40
2009,12,10,03,32,-7.40
2009,12,10,03,33,-7.40
2009,12,10,03,34,-7.50
2009,12,10,03,35,-7.50
2009,12,10,03,36,-7.50
2009,12,10,03,37,-7.50
2009,12,10,03,38,-7.50
2009,12,10,03,39,-7.50
2009,12,10,03,40,-7.50
2009,12,10,03,41,-7.50
2009,12,10,03,42,-7.50
2009,12,10,03,43,-7.50
2009,12,10,03,44,-7.60
2009,12,10,03,45,-7.60
2009,12,10,03,46,-7.60
2009,12,10,03,47,-7.60
2009,12,10,03,48,-7.60
2009,12,10,03,49,-7.60
2009,12,10,03,50,-7.60
2009,12,10,03,51,-7.60
2009,12,10,03,52,-7.60
2009,12,10,03,53,-7.50
2009,12,10,03,54,-7.50
2009,12,10,03,55,-7.40
2009,12,10,03,56,-7.40
2009,12,10,03,57,-7.40
2009,12,10,03,58,-7.40
2009,12,10,03,59,-7.40
2009,12,10,04,00,-7.30
2009,12,10,04,01,-7.20
2009,12,10,04,02,-7.20
2009,12,10,04,03,-7.20
2009,12,10,04,04,-7.20
2009,12,10,04,05,-7.20
2009,12,10,04,06,-7.20
2009,12,10,04,07,-7.20
2009,12,10,04,08,-7.20
2009,12,10,04,09,-7.20
2009,12,10,04,10,-7.20
2009,12,10,04,11,-7.30
2009,12,10,04,12,-7.30
2009,12,10,04,13,-7.30
2009,12,10,04,14,-7.30
2009,12,10,04,15,-7.30
2009,12,10,04,16,-7.40
2009,12,10,04,17,-7.40
2009,12,10,04,18,-7.40
2009,12,10,04,19,-7.50
2009,12,10,04,20,-7.50
2009,12,10,04,21,-7.60
2009,12,10,04,22,-7.60
2009,12,10,04,23,-7.60
2009,12,10,04,24,-7.70
2009,12,10,04,25,-7.70
2009,12,10,04,26,-7.70
2009,12,10,04,27,-7.80
2009,12,10,04,28,-7.80
2009,12,10,04,29,-7.80
2009,12,10,04,30,-7.80
2009,12,10,04,31,-7.80
2009,12,10,04,32,-7.80
2009,12,10,04,33,-7.80
2009,12,10,04,34,-7.70
2009,12,10,04,35,-7.70
2009,12,10,04,36,-7.60
2009,12,10,04,37,-7.60
2009,12,10,04,38,-7.50
2009,12,10,04,39,-7.50
2009,12,10,04,40,-7.50
2009,12,10,04,41,-7.50
2009,12,10,04,42,-7.50
2009,12,10,04,43,-7.50
2009,12,10,04,44,-7.60
2009,12,10,04,45,-7.60
2009,12,10,04,46,-7.60
2009,12,10,04,47,-7.60
2009,12,10,04,48,-7.60
2009,12,10,04,49,-7.60
2009,12,10,04,50,-7.70
2009,12,10,04,51,-7.70
2009,12,10,04,52,-7.70
2009,12,10,04,53,-7.60
2009,12,10,04,54,-7.50
2009,12,10,04,55,-7.50
2009,12,10,04,56,-7.40
2009,12,10,04,57,-7.30
2009,12,10,04,58,-7.30
2009,12,10,04,59,-7.20
2009,12,10,05,00,-7.20
2009,12,10,05,01,-7.20
2009,12,10,05,02,-7.30
2009,12,10,05,03,-7.30
2009,12,10,05,04,-7.30
2009,12,10,05,05,-7.40
2009,12,10,05,06,-7.50
2009,12,10,05,07,-7.50
2009,12,10,05,08,-7.60
2009,12,10,05,09,-7.60
2009,12,10,05,10,-7.60
2009,12,10,05,11,-7.60
2009,12,10,05,12,-7.60
2009,12,10,05,13,-7.60
2009,12,10,05,14,-7.60
2009,12,10,05,15,-7.60
2009,12,10,05,16,-7.60
2009,12,10,05,17,-7.60
2009,12,10,05,18,-7.60
2009,12,10,05,19,-7.70
2009,12,10,05,20,-7.70
2009,12,10,05,21,-7.70
2009,12,10,05,22,-7.70
2009,12,10,05,23,-7.80
2009,12,10,05,24,-7.80
2009,12,10,05,25,-7.80
2009,12,10,05,26,-7.80
2009,12,10,05,27,-7.80
2009,12,10,05,28,-7.80
2009,12,10,05,29,-7.80
2009,12,10,05,30,-7.80
2009,12,10,05,31,-7.80
2009,12,10,05,32,-7.80
2009,12,10,05,33,-7.80
2009,12,10,05,34,-7.70
2009,12,10,05,35,-7.70
2009,12,10,05,36,-7.60
2009,12,10,05,37,-7.60
2009,12,10,05,38,-7.50
2009,12,10,05,39,-7.50
2009,12,10,05,40,-7.50
2009,12,10,05,41,-7.50
2009,12,10,05,42,-7.50
2009,12,10,05,43,-7.60
2009,12,10,05,44,-7.60
2009,12,10,05,45,-7.60
2009,12,10,05,46,-7.70
2009,12,10,05,47,-7.70
2009,12,10,05,48,-7.80
2009,12,10,05,49,-7.80
2009,12,10,05,50,-7.80
2009,12,10,05,51,-7.80
2009,12,10,05,52,-7.90
2009,12,10,05,53,-7.90
2009,12,10,05,54,-7.90
2009,12,10,05,55,-7.90
2009,12,10,05,56,-7.90
2009,12,10,05,57,-7.90
2009,12,10,05,58,-7.90
2009,12,10,05,59,-7.90
2009,12,10,06,00,-7.90
2009,12,10,06,01,-8.00
2009,12,10,06,02,-8.00
2009,12,10,06,03,-8.00
2009,12,10,06,04,-8.00
2009,12,10,06,05,-8.00
2009,12,10,06,06,-8.10
2009,12,10,06,07,-8.10
2009,12,10,06,08,-8.10
2009,12,10,06,09,-8.10
2009,12,10,06,10,-8.10
2009,12,10,06,11,-8.10
2009,12,10,06,12,-8.10
2009,12,10,06,13,-8.10
2009,12,10,06,14,-8.00
2009,12,10,06,15,-8.00
2009,12,10,06,16,-8.00
2009,12,10,06,17,-7.90
2009,12,10,06,18,-7.90
2009,12,10,06,19,-7.90
2009,12,10,06,20,-7.90
2009,12,10,06,21,-7.90
2009,12,10,06,22,-7.90
2009,12,10,06,23,-7.90
2009,12,10,06,24,-7.90
2009,12,10,06,25,-7.90
2009,12,10,06,26,-7.90
2009,12,10,06,27,-7.90
2009,12,10,06,28,-8.00
2009,12,10,06,29,-8.00
2009,12,10,06,30,-8.10
2009,12,10,06,31,-8.10
2009,12,10,06,32,-8.10
2009,12,10,06,33,-8.00
2009,12,10,06,34,-7.90
2009,12,10,06,35,-7.80
2009,12,10,06,36,-7.70
2009,12,10,06,37,-7.60
2009,12,10,06,38,-7.60
2009,12,10,06,39,-7.50
2009,12,10,06,40,-7.50
2009,12,10,06,41,-7.50
2009,12,10,06,42,-7.50
2009,12,10,06,43,-7.50
2009,12,10,06,44,-7.50
2009,12,10,06,45,-7.50
2009,12,10,06,46,-7.50
2009,12,10,06,47,-7.60
2009,12,10,06,48,-7.60
2009,12,10,06,49,-7.70
2009,12,10,06,50,-7.70
2009,12,10,06,51,-7.70
2009,12,10,06,52,-7.80
2009,12,10,06,53,-7.80
2009,12,10,06,54,-7.80
2009,12,10,06,55,-7.80
2009,12,10,06,56,-7.80
2009,12,10,06,57,-7.80
2009,12,10,06,58,-7.80
2009,12,10,06,59,-7.80
2009,12,10,07,00,-7.90
2009,12,10,07,01,-7.90
2009,12,10,07,02,-7.90
2009,12,10,07,03,-7.90
2009,12,10,07,04,-7.90
2009,12,10,07,05,-7.90
2009,12,10,07,06,-7.90
2009,12,10,07,07,-7.90
2009,12,10,07,08,-7.80
2009,12,10,07,09,-7.80
2009,12,10,07,10,-7.80
2009,12,10,07,11,-7.70
2009,12,10,07,12,-7.70
2009,12,10,07,13,-7.70
2009,12,10,07,14,-7.70
2009,12,10,07,15,-7.70
2009,12,10,07,16,-7.70
2009,12,10,07,17,-7.80
2009,12,10,07,18,-7.80
2009,12,10,07,19,-7.80
2009,12,10,07,20,-7.80
2009,12,10,07,21,-7.80
2009,12,10,07,22,-7.90
2009,12,10,07,23,-7.90
2009,12,10,07,24,-7.90
2009,12,10,07,25,-7.90
2009,12,10,07,26,-7.90
2009,12,10,07,27,-8.00
2009,12,10,07,28,-8.00
2009,12,10,07,29,-8.00
2009,12,10,07,30,-8.00
2009,12,10,07,31,-8.00
2009,12,10,07,32,-8.10
2009,12,10,07,33,-8.10
2009,12,10,07,34,-8.10
2009,12,10,07,35,-8.10
2009,12,10,07,36,-8.10
2009,12,10,07,37,-8.10
2009,12,10,07,38,-8.10
2009,12,10,07,39,-8.10
2009,12,10,07,40,-8.10
2009,12,10,07,41,-8.10
2009,12,10,07,42,-8.10
2009,12,10,07,43,-8.10
2009,12,10,07,44,-8.10
2009,12,10,07,45,-8.10
2009,12,10,07,46,-8.10
2009,12,10,07,47,-8.10
2009,12,10,07,48,-8.10
2009,12,10,07,49,-8.10
2009,12,10,07,50,-8.20
2009,12,10,07,51,-8.20
2009,12,10,07,52,-8.20
2009,12,10,07,53,-8.10
2009,12,10,07,54,-8.10
2009,12,10,07,55,-8.10
2009,12,10,07,56,-8.10
2009,12,10,07,57,-8.00
2009,12,10,07,58,-8.00
2009,12,10,07,59,-8.00
2009,12,10,08,00,-8.00
2009,12,10,08,01,-8.00
2009,12,10,08,02,-8.00
2009,12,10,08,03,-7.90
2009,12,10,08,04,-7.90
2009,12,10,08,05,-7.90
2009,12,10,08,06,-7.80
2009,12,10,08,07,-7.80
2009,12,10,08,08,-7.80
2009,12,10,08,09,-7.70
2009,12,10,08,10,-7.70
2009,12,10,08,11,-7.70
2009,12,10,08,12,-7.60
2009,12,10,08,13,-7.60
2009,12,10,08,14,-7.60
2009,12,10,08,15,-7.50
2009,12,10,08,16,-7.50
2009,12,10,08,17,-7.50
2009,12,10,08,18,-7.40
2009,12,10,08,19,-7.30
2009,12,10,08,20,-7.30
2009,12,10,08,21,-7.20
2009,12,10,08,22,-7.20
2009,12,10,08,23,-7.10
2009,12,10,08,24,-7.10
2009,12,10,08,25,-7.10
2009,12,10,08,26,-7.10
2009,12,10,08,27,-7.10
2009,12,10,08,28,-7.10
2009,12,10,08,29,-7.10
2009,12,10,08,30,-7.10
2009,12,10,08,31,-7.00
2009,12,10,08,32,-7.00
2009,12,10,08,33,-7.00
2009,12,10,08,34,-6.90
2009,12,10,08,35,-6.90
2009,12,10,08,36,-6.80
2009,12,10,08,37,-6.80
2009,12,10,08,38,-6.80
2009,12,10,08,39,-6.80
2009,12,10,08,40,-6.80
2009,12,10,08,41,-6.70
2009,12,10,08,42,-6.60
2009,12,10,08,43,-6.50
2009,12,10,08,44,-6.40
2009,12,10,08,45,-6.40
2009,12,10,08,46,-6.30
2009,12,10,08,47,-6.20
2009,12,10,08,48,-6.20
2009,12,10,08,49,-6.10
2009,12,10,08,50,-6.00
2009,12,10,08,51,-6.00
2009,12,10,08,52,-5.90
2009,12,10,08,53,-5.90
2009,12,10,08,54,-5.80
2009,12,10,08,55,-5.70
2009,12,10,08,56,-5.70
2009,12,10,08,57,-5.60
2009,12,10,08,58,-5.60
2009,12,10,08,59,-5.50
2009,12,10,09,00,-5.40
2009,12,10,09,01,-5.40
2009,12,10,09,02,-5.40
2009,12,10,09,03,-5.30
2009,12,10,09,04,-5.30
2009,12,10,09,05,-5.20
2009,12,10,09,06,-5.20
2009,12,10,09,07,-5.10
2009,12,10,09,08,-5.10
2009,12,10,09,09,-5.00
2009,12,10,09,10,-4.90
2009,12,10,09,11,-4.90
2009,12,10,09,12,-4.80
2009,12,10,09,13,-4.80
2009,12,10,09,14,-4.70
2009,12,10,09,15,-4.60
2009,12,10,09,16,-4.60
2009,12,10,09,17,-4.50
2009,12,10,09,18,-4.50
2009,12,10,09,19,-4.40
2009,12,10,09,20,-4.30
2009,12,10,09,21,-4.20
2009,12,10,09,22,-4.20
2009,12,10,09,23,-4.10
2009,12,10,09,24,-4.00
2009,12,10,09,25,-4.00
2009,12,10,09,26,-3.90
2009,12,10,09,27,-3.80
2009,12,10,09,28,-3.80
2009,12,10,09,29,-3.70
2009,12,10,09,30,-3.70
2009,12,10,09,31,-3.70
2009,12,10,09,32,-3.60
2009,12,10,09,33,-3.50
2009,12,10,09,34,-3.50
2009,12,10,09,35,-3.40
2009,12,10,09,36,-3.30
2009,12,10,09,37,-3.20
2009,12,10,09,38,-3.10
2009,12,10,09,39,-2.90
2009,12,10,09,40,-2.80
2009,12,10,09,41,-2.70
2009,12,10,09,42,-2.70
2009,12,10,09,43,-2.60
2009,12,10,09,44,-2.50
2009,12,10,09,45,-2.30
2009,12,10,09,46,-2.20
2009,12,10,09,47,-2.10
2009,12,10,09,48,-2.10
2009,12,10,09,49,-2.00
2009,12,10,09,50,-1.90
2009,12,10,09,51,-1.80
2009,12,10,09,52,-1.80
2009,12,10,09,53,-1.70
2009,12,10,09,54,-1.70
2009,12,10,09,55,-1.60
2009,12,10,09,56,-1.60
2009,12,10,09,57,-1.50
2009,12,10,09,58,-1.50
2009,12,10,09,59,-1.30
2009,12,10,10,00,-1.20
2009,12,10,10,01,-1.10
2009,12,10,10,02,-1.00
2009,12,10,10,03,-0.90
2009,12,10,10,04,-0.90
2009,12,10,10,05,-0.90
2009,12,10,10,06,-0.80
2009,12,10,10,07,-0.70
2009,12,10,10,08,-0.60
2009,12,10,10,09,-0.50
2009,12,10,10,10,-0.40
2009,12,10,10,11,-0.30
2009,12,10,10,12,-0.30
2009,12,10,10,13,-0.20
2009,12,10,10,14,-0.10
2009,12,10,10,15,-0.10
2009,12,10,10,16,0.00
2009,12,10,10,17,0.00
2009,12,10,10,18,0.10
2009,12,10,10,19,0.20
2009,12,10,10,20,0.30
2009,12,10,10,21,0.40
2009,12,10,10,22,0.40
2009,12,10,10,23,0.40
2009,12,10,10,24,0.50
2009,12,10,10,25,0.50
2009,12,10,10,26,0.50
2009,12,10,10,27,0.60
2009,12,10,10,28,0.70
2009,12,10,10,29,0.80
2009,12,10,10,30,0.80
2009,12,10,10,31,0.90
2009,12,10,10,32,1.00
2009,12,10,10,33,1.00
2009,12,10,10,34,1.10
2009,12,10,10,35,1.20
2009,12,10,10,36,1.20
2009,12,10,10,37,1.20
2009,12,10,10,38,1.30
2009,12,10,10,39,1.30
2009,12,10,10,40,1.30
2009,12,10,10,41,1.30
2009,12,10,10,42,1.30
2009,12,10,10,43,1.30
2009,12,10,10,44,1.40
2009,12,10,10,45,1.40
2009,12,10,10,46,1.40
2009,12,10,10,47,1.50
2009,12,10,10,48,1.50
2009,12,10,10,49,1.50
2009,12,10,10,50,1.50
2009,12,10,10,51,1.60
2009,12,10,10,52,1.60
2009,12,10,10,53,1.60
2009,12,10,10,54,1.60
2009,12,10,10,55,1.60
2009,12,10,10,56,1.60
2009,12,10,10,57,1.60
2009,12,10,10,58,1.60
2009,12,10,10,59,1.70
2009,12,10,11,00,1.70
2009,12,10,11,01,1.70
2009,12,10,11,02,1.80
2009,12,10,11,03,1.80
2009,12,10,11,04,1.90
2009,12,10,11,05,1.90
2009,12,10,11,06,2.00
2009,12,10,11,07,2.00
2009,12,10,11,08,2.10
2009,12,10,11,09,2.10
2009,12,10,11,10,2.10
2009,12,10,11,11,2.10
2009,12,10,11,12,2.10
2009,12,10,11,13,2.10
2009,12,10,11,14,2.10
2009,12,10,11,15,2.20
2009,12,10,11,16,2.20
2009,12,10,11,17,2.20
2009,12,10,11,18,2.10
2009,12,10,11,19,2.00
2009,12,10,11,20,2.00
2009,12,10,11,21,2.00
2009,12,10,11,22,2.00
2009,12,10,11,23,2.00
2009,12,10,11,24,1.90
2009,12,10,11,25,2.00
2009,12,10,11,26,2.00
2009,12,10,11,27,2.00
2009,12,10,11,28,2.00
2009,12,10,11,29,2.00
2009,12,10,11,30,2.00
2009,12,10,11,31,2.00
2009,12,10,11,32,2.10
2009,12,10,11,33,2.10
2009,12,10,11,34,2.10
2009,12,10,11,35,2.10
2009,12,10,11,36,2.00
2009,12,10,11,37,2.00
2009,12,10,11,38,2.00
2009,12,10,11,39,2.00
2009,12,10,11,40,2.00
2009,12,10,11,41,2.10
2009,12,10,11,42,2.10
2009,12,10,11,43,2.10
2009,12,10,11,44,2.10
2009,12,10,11,45,2.00
2009,12,10,11,46,2.00
2009,12,10,11,47,2.00
2009,12,10,11,48,2.00
2009,12,10,11,49,2.00
2009,12,10,11,50,2.00
2009,12,10,11,51,2.10
2009,12,10,11,52,2.00
2009,12,10,11,53,2.10
2009,12,10,11,54,2.10
2009,12,10,11,55,2.10
2009,12,10,11,56,2.10
2009,12,10,11,57,2.10
2009,12,10,11,58,2.10
2009,12,10,11,59,2.10
2009,12,10,12,00,2.10
2009,12,10,12,01,2.10
2009,12,10,12,02,2.10
2009,12,10,12,03,2.20
2009,12,10,12,04,2.20
2009,12,10,12,05,2.20
2009,12,10,12,06,2.20
2009,12,10,12,07,2.20
2009,12,10,12,08,2.20
2009,12,10,12,09,2.20
2009,12,10,12,10,2.30
2009,12,10,12,11,2.30
2009,12,10,12,12,2.30
2009,12,10,12,13,2.30
2009,12,10,12,14,2.30
2009,12,10,12,15,2.30
2009,12,10,12,16,2.30
2009,12,10,12,17,2.20
2009,12,10,12,18,2.20
2009,12,10,12,19,2.20
2009,12,10,12,20,2.20
2009,12,10,12,21,2.20
2009,12,10,12,22,2.20
2009,12,10,12,23,2.20
2009,12,10,12,24,2.20
2009,12,10,12,25,2.20
2009,12,10,12,26,2.20
2009,12,10,12,27,2.20
2009,12,10,12,28,2.20
2009,12,10,12,29,2.20
2009,12,10,12,30,2.20
2009,12,10,12,31,2.20
2009,12,10,12,32,2.20
2009,12,10,12,33,2.20
2009,12,10,12,34,2.20
2009,12,10,12,35,2.20
2009,12,10,12,36,2.20
2009,12,10,12,37,2.20
2009,12,10,12,38,2.20
2009,12,10,12,39,2.20
2009,12,10,12,40,2.20
2009,12,10,12,41,2.20
2009,12,10,12,42,2.20
2009,12,10,12,43,2.30
2009,12,10,12,44,2.30
2009,12,10,12,45,2.30
2009,12,10,12,46,2.20
2009,12,10,12,47,2.30
2009,12,10,12,48,2.30
2009,12,10,12,49,2.30
2009,12,10,12,50,2.30
2009,12,10,12,51,2.30
2009,12,10,12,52,2.30
2009,12,10,12,53,2.30
2009,12,10,12,54,2.30
2009,12,10,12,55,2.30
2009,12,10,12,56,2.30
2009,12,10,12,57,2.30
2009,12,10,12,58,2.30
2009,12,10,12,59,2.40
2009,12,10,13,00,2.40
2009,12,10,13,01,2.30
2009,12,10,13,02,2.30
2009,12,10,13,03,2.30
2009,12,10,13,04,2.30
2009,12,10,13,05,2.30
2009,12,10,13,06,2.30
2009,12,10,13,07,2.30
2009,12,10,13,08,2.40
2009,12,10,13,09,2.40
2009,12,10,13,10,2.40
2009,12,10,13,11,2.40
2009,12,10,13,12,2.40
2009,12,10,13,13,2.40
2009,12,10,13,14,2.30
2009,12,10,13,15,2.30
2009,12,10,13,16,2.30
2009,12,10,13,17,2.30
2009,12,10,13,18,2.30
2009,12,10,13,19,2.30
2009,12,10,13,20,2.30
2009,12,10,13,21,2.30
2009,12,10,13,22,2.30
2009,12,10,13,23,2.30
2009,12,10,13,24,2.30
2009,12,10,13,25,2.40
2009,12,10,13,26,2.40
2009,12,10,13,27,2.40
2009,12,10,13,28,2.40
2009,12,10,13,29,2.40
2009,12,10,13,30,2.40
2009,12,10,13,31,2.40
2009,12,10,13,32,2.40
2009,12,10,13,33,2.50
2009,12,10,13,34,2.50
2009,12,10,13,35,2.50
2009,12,10,13,36,2.60
2009,12,10,13,37,2.60
2009,12,10,13,38,2.50
2009,12,10,13,39,2.50
2009,12,10,13,40,2.50
2009,12,10,13,41,2.50
2009,12,10,13,42,2.50
2009,12,10,13,43,2.50
2009,12,10,13,44,2.40
2009,12,10,13,45,2.40
2009,12,10,13,46,2.40
2009,12,10,13,47,2.40
2009,12,10,13,48,2.40
2009,12,10,13,49,2.40
2009,12,10,13,50,2.40
2009,12,10,13,51,2.40
2009,12,10,13,52,2.50
2009,12,10,13,53,2.40
2009,12,10,13,54,2.40
2009,12,10,13,55,2.40
2009,12,10,13,56,2.30
2009,12,10,13,57,2.30
2009,12,10,13,58,2.20
2009,12,10,13,59,2.20
2009,12,10,14,00,2.20
2009,12,10,14,01,2.20
2009,12,10,14,02,2.10
2009,12,10,14,03,2.10
2009,12,10,14,04,2.10
2009,12,10,14,05,2.10
2009,12,10,14,06,2.10
2009,12,10,14,07,2.10
2009,12,10,14,08,2.10
2009,12,10,14,09,2.10
2009,12,10,14,10,2.10
2009,12,10,14,11,2.20
2009,12,10,14,12,2.20
2009,12,10,14,13,2.20
2009,12,10,14,14,2.20
2009,12,10,14,15,2.20
2009,12,10,14,16,2.20
2009,12,10,14,17,2.20
2009,12,10,14,18,2.20
2009,12,10,14,19,2.20
2009,12,10,14,20,2.20
2009,12,10,14,21,2.30
2009,12,10,14,22,2.30
2009,12,10,14,23,2.30
2009,12,10,14,24,2.30
2009,12,10,14,25,2.30
2009,12,10,14,26,2.30
2009,12,10,14,27,2.30
2009,12,10,14,28,2.30
2009,12,10,14,29,2.30
2009,12,10,14,30,2.30
2009,12,10,14,31,2.30
2009,12,10,14,32,2.40
2009,12,10,14,33,2.40
2009,12,10,14,34,2.40
2009,12,10,14,35,2.40
2009,12,10,14,36,2.50
2009,12,10,14,37,2.50
2009,12,10,14,38,2.60
2009,12,10,14,39,2.60
2009,12,10,14,40,2.70
2009,12,10,14,41,2.80
2009,12,10,14,42,2.80
2009,12,10,14,43,2.80
2009,12,10,14,44,2.90
2009,12,10,14,45,2.90
2009,12,10,14,46,2.90
2009,12,10,14,47,2.90
2009,12,10,14,48,2.90
2009,12,10,14,49,2.90
2009,12,10,14,50,2.90
2009,12,10,14,51,2.90
2009,12,10,14,52,2.90
2009,12,10,14,53,2.90
2009,12,10,14,54,3.00
2009,12,10,14,55,3.00
2009,12,10,14,56,3.00
2009,12,10,14,57,3.00
2009,12,10,14,58,3.00
2009,12,10,14,59,3.00
2009,12,10,15,00,3.10
2009,12,10,15,01,3.10
2009,12,10,15,02,3.10
2009,12,10,15,03,3.20
2009,12,10,15,04,3.20
2009,12,10,15,05,3.30
2009,12,10,15,06,3.30
2009,12,10,15,07,3.30
2009,12,10,15,08,3.30
2009,12,10,15,09,3.30
2009,12,10,15,10,3.30
2009,12,10,15,11,3.20
2009,12,10,15,12,3.20
2009,12,10,15,13,3.10
2009,12,10,15,14,3.10
2009,12,10,15,15,3.00
2009,12,10,15,16,2.90
2009,12,10,15,17,2.90
2009,12,10,15,18,2.90
2009,12,10,15,19,2.80
2009,12,10,15,20,2.80
2009,12,10,15,21,2.80
2009,12,10,15,22,2.80
2009,12,10,15,23,2.80
2009,12,10,15,24,2.70
2009,12,10,15,25,2.70
2009,12,10,15,26,2.70
2009,12,10,15,27,2.70
2009,12,10,15,28,2.70
2009,12,10,15,29,2.60
2009,12,10,15,30,2.60
2009,12,10,15,31,2.60
2009,12,10,15,32,2.60
2009,12,10,15,33,2.50
2009,12,10,15,34,2.50
2009,12,10,15,35,2.50
2009,12,10,15,36,2.50
2009,12,10,15,37,2.50
2009,12,10,15,38,2.40
2009,12,10,15,39,2.40
2009,12,10,15,40,2.40
2009,12,10,15,41,2.40
2009,12,10,15,42,2.40
2009,12,10,15,43,2.40
2009,12,10,15,44,2.40
2009,12,10,15,45,2.30
2009,12,10,15,46,2.30
2009,12,10,15,47,2.30
2009,12,10,15,48,2.30
2009,12,10,15,49,2.30
2009,12,10,15,50,2.30
2009,12,10,15,51,2.30
2009,12,10,15,52,2.30
2009,12,10,15,53,2.30
2009,12,10,15,54,2.30
2009,12,10,15,55,2.30
2009,12,10,15,56,2.30
2009,12,10,15,57,2.30
2009,12,10,15,58,2.30
2009,12,10,15,59,2.30
2009,12,10,16,00,2.20
2009,12,10,16,01,2.20
2009,12,10,16,02,2.20
2009,12,10,16,03,2.20
2009,12,10,16,04,2.20
2009,12,10,16,05,2.20
2009,12,10,16,06,2.20
2009,12,10,16,07,2.20
2009,12,10,16,08,2.20
2009,12,10,16,09,2.20
2009,12,10,16,10,2.20
2009,12,10,16,11,2.20
2009,12,10,16,12,2.20
2009,12,10,16,13,2.20
2009,12,10,16,14,2.20
2009,12,10,16,15,2.20
2009,12,10,16,16,2.20
2009,12,10,16,17,2.20
2009,12,10,16,18,2.20
2009,12,10,16,19,2.20
2009,12,10,16,20,2.20
2009,12,10,16,21,2.10
2009,12,10,16,22,2.10
2009,12,10,16,23,2.10
2009,12,10,16,24,2.10
2009,12,10,16,25,2.10
2009,12,10,16,26,2.10
2009,12,10,16,27,2.10
2009,12,10,16,28,2.10
2009,12,10,16,29,2.00
2009,12,10,16,30,2.00
2009,12,10,16,31,2.00
2009,12,10,16,32,2.00
2009,12,10,16,33,2.00
2009,12,10,16,34,1.90
2009,12,10,16,35,1.90
2009,12,10,16,36,1.90
2009,12,10,16,37,1.90
2009,12,10,16,38,1.90
2009,12,10,16,39,1.90
2009,12,10,16,40,1.90
2009,12,10,16,41,1.90
2009,12,10,16,42,1.90
2009,12,10,16,43,1.90
2009,12,10,16,44,1.90
2009,12,10,16,45,1.90
2009,12,10,16,46,1.90
2009,12,10,16,47,1.90
2009,12,10,16,48,1.90
2009,12,10,16,49,1.90
2009,12,10,16,50,1.90
2009,12,10,16,51,1.90
2009,12,10,16,52,1.90
2009,12,10,16,53,1.90
2009,12,10,16,54,1.90
2009,12,10,16,55,1.90
2009,12,10,16,56,1.90
2009,12,10,16,57,1.90
2009,12,10,16,58,1.90
2009,12,10,16,59,1.80
2009,12,10,17,00,1.80
2009,12,10,17,01,1.80
2009,12,10,17,02,1.80
2009,12,10,17,03,1.80
2009,12,10,17,04,1.80
2009,12,10,17,05,1.70
2009,12,10,17,06,1.70
2009,12,10,17,07,1.70
2009,12,10,17,08,1.70
2009,12,10,17,09,1.70
2009,12,10,17,10,1.70
2009,12,10,17,11,1.70
2009,12,10,17,12,1.70
2009,12,10,17,13,1.60
2009,12,10,17,14,1.60
2009,12,10,17,15,1.60
2009,12,10,17,16,1.60
2009,12,10,17,17,1.60
2009,12,10,17,18,1.60
2009,12,10,17,19,1.60
2009,12,10,17,20,1.60
2009,12,10,17,21,1.50
2009,12,10,17,22,1.50
2009,12,10,17,23,1.40
2009,12,10,17,24,1.40
2009,12,10,17,25,1.40
2009,12,10,17,26,1.30
2009,12,10,17,27,1.30
2009,12,10,17,28,1.30
2009,12,10,17,29,1.30
2009,12,10,17,30,1.30
2009,12,10,17,31,1.30
2009,12,10,17,32,1.30
2009,12,10,17,33,1.30
2009,12,10,17,34,1.30
2009,12,10,17,35,1.30
2009,12,10,17,36,1.30
2009,12,10,17,37,1.30
2009,12,10,17,38,1.30